默认 日期 大小 文件数 浏览量 最新下载 xml
jimi磁力链接相关资源由用户搜索指令自动获取,结果来源于网络,本站不存储任何资料,亦不承担任何责任,请于24小时内删除,搜索到3880个磁力,用时4ms。
    ... Template)_spectrogram.png": 287627, "jimi-hendrix-unsurpassed-masters-studio-reel ... -6cd_202305_meta.xml": 813, "jimi-hendrix-unsurpassed-masters-studio-reel ... ": 15285312, "cd5-11 - Jimi On Bass Session 15 June ... ": 287333, "cd5-11 - Jimi On Bass Session 15 June ...
创建时间: 2023-05-14 20:23:28 大小:971.63 MB 文件数量:445 热度:4 最近下载:2025-03-02 04:59:04
    ... . Jimi_Hendrix_-_Takin'_Care_Of_No_Business_spectrogram.png": 283451, "jimi-hendrix-electric-ladyland-outakes-1968 ... , "03._Jimi_Hendrix_-_Ain_t_Nothin___Wrong_With_That_spectrogram.png": 305928, "jimi-hendrix-electric-ladyland-outakes-1968 ...
创建时间: 2023-05-14 22:49:30 大小:90.78 MB 文件数量:64 热度:4 最近下载:2025-09-18 22:03:10
    ... Jam_spectrogram.png": 269915, "01 - Jazz Jimi Jam_spectrogram.png": 268101, "03 - She ... bbc 67_spectrogram.png": 296732, "Jimi Hendrix - Sotheby Plus Masters-2 ... - Electric Ladyland - drums_spectrogram.png": 316267, "Jimi Hendrix - Sotheby Plus Masters-2_thumb ...
创建时间: 2023-05-14 23:17:58 大小:335.7 MB 文件数量:88 热度:2 最近下载:2025-01-16 09:33:03
    ... 3 (4)_spectrogram.png": 323575, "jimi-hendrix-lonnie-youngblood-two-great ... -experiences-1965_meta.xml": 864, "jimi-hendrix-lonnie-youngblood-two-great ...
创建时间: 2023-05-15 05:32:29 大小:126.11 MB 文件数量:63 热度:2 最近下载:2025-02-15 03:37:02
    ... -studio-outtakes_meta.xml": 762, "jimi-hendrix-astroman-studio-outtakes_meta.sqlite ... ": 40960, "Jimi Hendrix - Astroman 1 Studio 68_spectrogram ... .png": 297436, "Jimi Hendrix - Astroman 2 Studio 69_spectrogram ...
创建时间: 2023-05-15 08:15:47 大小:363.29 MB 文件数量:24 热度:2 最近下载:2025-01-15 18:41:06
    ... [louder ending added].png": 34808, "jimi-hendrix-the-ross-tapes-tape ... -3_meta.xml": 744, "jimi-hendrix-the-ross-tapes-tape ...
创建时间: 2023-05-15 09:10:36 大小:212.08 MB 文件数量:49 热度:2 最近下载:2025-01-11 14:43:09
    ... (Slight Return)_spectrogram.png": 309682, "jimi-hendrix-on-the-killing-floor ... -1969-01-09_meta.xml": 858, "jimi-hendrix-on-the-killing-floor ...
创建时间: 2023-05-15 09:46:31 大小:273.42 MB 文件数量:77 热度:4 最近下载:2025-03-05 07:01:48
    ... Jamming With Buddy_spectrogram.png": 319660, "jimi-hendrix-fall-1969-record-plant ... -jams_meta.xml": 786, "jimi-hendrix-fall-1969-record-plant ...
创建时间: 2023-05-15 09:48:02 大小:161.06 MB 文件数量:81 热度:6 最近下载:2025-01-23 02:38:03
    ... - Villanova Junction Blues.mp3": 4299251, "jimi-hendrix-people-hell-and-angels ... -2013_meta.xml": 668, "jimi-hendrix-people-hell-and-angels ...
创建时间: 2023-05-15 09:48:14 大小:122 MB 文件数量:17 热度:3 最近下载:2025-04-25 15:46:02
    ... - 07 - Cherokee Mist.png": 43531, "jimi-hendrix-black-gold-5cd_meta.xml ... - 02 - Instrumental Jam.png": 35034, "jimi-hendrix-black-gold-5cd_meta.sqlite ...
创建时间: 2023-05-15 09:52:54 大小:493.74 MB 文件数量:127 热度:2 最近下载:2025-02-05 00:20:02
    ... - South Southern Delta_spectrogram.png": 292364, "jimi-hendrix-villanova-junction-limited-edition_202304_meta ... .xml": 809, "jimi-hendrix-villanova-junction-limited-edition_202304_meta ...
创建时间: 2023-05-15 20:43:26 大小:103.66 MB 文件数量:36 热度:3 最近下载:2025-03-11 20:01:47
    {"01.jpg": 144413, "02.jpg": 131455, "03.jpg": 180755, "04.jpg": 150032, "05.jpg": 174509, "06.jpg": 164335, "07.jpg": 164625, "08.jpg": 147055, "09.jpg": 155932, "10.jpg": 164690, "11.jpg": 170581, "12.jpg": 184759, "13.jpg": 168752, "14.jpg": 155681, "15 ...
创建时间: 2023-05-15 23:57:26 大小:4.62 MB 文件数量:29 热度:12 最近下载:2025-10-13 09:55:03
    {"info info info there there there.txt": 1674, "ATM 127 - Way Down In Texas Land II (Slight Return) Rev A CD 2 (Flac)": {"02 FL.flac": 21400677, "08 ER.flac": 20586122, "11 PH.flac": 16522269, "06 MTL.flac": 19814240, "10 SSB.flac": 10468007, "01 Fire.flac ...
创建时间: 2023-05-16 05:04:51 大小:645.3 MB 文件数量:37 热度:3 最近下载:2025-03-18 16:48:03
    ... .jpg": 2075500}, "The Jimi Hendrix Experience - Stages Paris ... "Booklet-4.jpg": 1907503}, "Jimi Hendrix - Stages Atlanta '70 ... 4.jpg": 2301692}, "The Jimi Hendrix Experience - Stages Stockholm ... flac": 194462278, "The Jimi Hendrix Experience - Stages Stockholm ...
创建时间: 2023-05-16 05:52:25 大小:1.06 GB 文件数量:50 热度:4 最近下载:2025-03-18 21:18:02
    ... A Fox.flac": 16260938, "Jimi Hendrix - West Coast Seattle ... To Be).flac": 19825206, "Jimi Hendrix - West Coast Seattle ... Banner (Live).flac": 16477050, "Jimi Hendrix - West Coast Seattle ... November Morning.flac": 25877865, "Jimi Hendrix - West Coast Seattle Boy ...
创建时间: 2023-05-16 08:28:34 大小:1.59 GB 文件数量:71 热度:5 最近下载:2025-01-23 11:39:06
    {"info.log": 1640, "01-SF.flac": 28390015, "09-RH.flac": 44708945, "10-FL.flac": 30776680, "13-PH.flac": 25591977, "03-AYE.flac": 39031541, "05-SOYL.flac": 37628071, "06-FIRE.flac": 23703475, "11-LARS.flac": 32195926, "12-VC-drums.flac": 55099039, "14-MC ...
创建时间: 2023-05-16 08:45:47 大小:373.58 MB 文件数量:41 热度:3 最近下载:2025-03-31 09:37:02
    {"1.jpg": 195497, "2.jpg": 188637, "3.jpg": 179750, "4.jpg": 198556, "5.jpg": 189266, "6.jpg": 180857}
创建时间: 2023-05-16 23:16:45 大小:1.08 MB 文件数量:6 热度:7 最近下载:2025-08-04 00:17:07
    ... .VOB": 912977920}, "VIDEO_TS.md5": 336, "Jimi Hendrix 1968-08-23 Singer ...
创建时间: 2023-05-17 06:48:05 大小:925.15 MB 文件数量:9 热度:7 最近下载:2025-04-16 14:30:01
    ... Blues Jam_spectrogram.png": 248320, "Jimi Hendrix & Stephen Stills - Still ... 05-21_meta.xml": 858, "Jimi Hendrix & Stephen Stills - ... 05-21_meta.sqlite": 45056, "Jimi Hendrix & Stephen Stills - Still ... 21,1968_b_thumb.jpg": 9397, "Jimi Hendrix & Stephen Stills - ...
创建时间: 2023-05-17 22:34:58 大小:159.32 MB 文件数量:36 热度:5 最近下载:2025-02-18 19:32:02
    ... ": 624, "mediainfo.txt": 2585, "Jimi Hendrix - Jimi Hendrix Experience 1967.txt": 1349}
创建时间: 2023-05-17 22:52:12 大小:4.12 GB 文件数量:13 热度:3 最近下载:2025-01-15 16:06:08